Regional Weather Roundup
Issued by NWS Kansas City/Pleasant Hill, MO

Home | Current Version | Previous Version | Graphics & Text | Print | Product List | Glossary Off
Versions: 1 2 3 4 5 6 7 8 9 10 11 12 13 14 15 16 17 18 19 20 21 22 23 24 25 26 27 28 29 30 31 32 33 34 35 36 37 38 39 40 41 42 43 44 45 46 47 48 49 50

000
ASUS43 KEAX 171410
RWREAX

WEATHER ROUNDUP FOR EASTERN KANSAS AND NORTHWEST MISSOURI
NATIONAL WEATHER SERVICE KANSAS CITY/PLEASANT HILL MO
900 AM CDT WED SEP 17 2014

KSZ040-057-103>105-MOZ028-029-037-043-171500-
...KANSAS CITY METROPOLITAN AREA...

CITY           SKY/WX    TMP DP  RH WIND       PRES   REMARKS
K.C. INTL      DRIZZLE   63  62  97 SE5       29.93S FOG
K.C. DOWNTOWN  CLOUDY    65  63  93 E3        29.93S FOG
LEES SUMMIT    CLOUDY    64  63  96 CALM      29.94S
OLATHE - IXD   CLOUDY    66  65  96 CALM      29.94S FOG
OLATHE - OJC   CLOUDY    64  64 100 CALM      29.93S
LAWRENCE       CLOUDY    66  64  93 E3        29.92F FOG

$$

MOZ001>008-011>017-020>025-030>033-038>040-044>046-053-054-171500-
...NORTHERN AND CENTRAL MISSOURI...

CITY           SKY/WX    TMP DP  RH WIND       PRES   REMARKS
ST. JOSEPH     CLOUDY    63  61  93 SE3       29.94S
MOSBY          DRIZZLE   61  61 100 CALM      29.94R
WHITEMAN AFB   LGT RAIN  63  62  97 S5        29.93S
CLINTON        HVY RAIN  64  64 100 S6        29.94F VSB 1
SEDALIA        LGT RAIN  64  62  93 SE6       29.95F FOG
WARSAW         NOT AVBL
MARSHALL       CLOUDY    63  63 100 E5        29.96R FOG
CHILLICOTHE      N/A     61  58  90 E3        29.97F
MOBERLY        CLOUDY    59  54  82 E5        29.98
KIRKSVILLE     CLOUDY    57  55  93 E6        29.99S FOG

$$

MOZ041-047>049-056>058-063>065-088>090-097-171500-
...EASTERN AND SOUTHERN MISSOURI...

CITY           SKY/WX    TMP DP  RH WIND       PRES   REMARKS
ST. LOUIS INTL PTSUNNY   60  51  72 S7        30.05R
SPIRIT OF STL  CLOUDY    57  52  83 CALM      30.03R
COLUMBIA       CLOUDY   N/A N/A N/A SE8       29.98F HAZE
JEFFERSON CITY HVY RAIN  59  57  93 E6        29.97F FOG
MEXICO         CLOUDY   N/A N/A N/A SE6       29.99
HANNIBAL       CLOUDY    57  54  88 SE6       30.01S
ROLLA          LGT RAIN  57  56  96 S14       29.99S FOG
LEBANON        TSTM      63  61  94 SE10      29.98F
OSAGE BEACH    CLOUDY    63  61  94 E6        29.96S
SPRINGFIELD    TSTM      65  63  93 SW8       29.99R FOG
BRANSON        FOG       66  64  94 SE12      29.97S VSB 1/4
NEVADA         CLOUDY    66  66 100 SE3       29.94F
JOPLIN         MOSUNNY   73  69  87 SW10      29.94F
WEST PLAINS    LGT RAIN  61  58  90 MISG      30.04S

$$

IAZ060-094-KSZ022-034>040-054-083-096-NEZ052-066-093-171500-
...KANSAS...SOUTHEAST NEBRASKA AND IOWA...

CITY           SKY/WX    TMP DP  RH WIND       PRES   REMARKS
TOPEKA         CLOUDY    67  66  97 SE5       29.92S FOG
MANHATTAN      CLOUDY    70  67  90 CALM      29.91R FOG
EMPORIA        SUNNY     73  69  87 SW6       29.90S
CHANUTE        MOSUNNY   71  69  93 S9        29.92S FOG
WICHITA        MOSUNNY   72  67  84 SW9       29.91F HAZE
OMAHA          MOSUNNY   61  55  81 S5        29.94R
LINCOLN        CLOUDY    60  55  83 CALM      29.94S
FALLS CITY     CLOUDY    63  61  93 E6        29.93R
LAMONI         CLOUDY    59  57  93 SE5       29.96S
DES MOINES     CLOUDY    60  52  74 SE5       29.96S

$$



USA.gov is the U.S. government's official web portal to all federal, state and local government web resources and services.